CZ-4 DEB, 26203

Orbit data source: Space-Track

CZ-4 DEB, 26203 is space debris in SSO originally from a launch on Thu, 14 Oct 1999 UTC launched from the Taiyaun Space Center, China (TSC). Debris objects in space refer to the collection of defunct objects orbiting the Earth. Examples of debris include non-operational satellites, rocket bodies, and fragments generated from explosions, collisions, or faulty payload assembly.

Loading next visibility...
Identifier
26203, 1999-057CR
Orbit
SSO
Country
Flag of CNCN / PRC
Related business
Manufacturer
Unknown
Mission
Spacecraft
Bus & Motor
Unknown
Mass
Unknown
Launch date (UTC)
1999-10-14 (26 years ago)
Launch vehicle
Unknown
Launch site
Taiyaun Space Center, China (TSC)
Object type
Payload
Rocket body
Debris
Shape & HBR
Unknown shape, 0.1 m
Radar Cross Section
Small (<0.1 m²)

Expand to show TLE details & history
Last TLE update: 1 day ago

TLE from 1 day ago
0 CZ-4 DEB
1 26203U 99057CR  25348.33511485  .00001096  00000-0  38563-3 0  9999
2 26203  98.3162 123.6343 0108933 152.6048 267.8457 14.33454389342479
Epoch: 2025-12-14T08:02Z
TLE epoch observation values (Epoch: 2025-12-14T08:02:33.923Z)
Latitude
58.30625°
Longitude
-93.87613°
Altitude
793.811 km
Speed
7.46 km/s
True Right ascension
07h 20m 03s
True Declination
58° 09' 11"
Sunlit
Object was in full shadow at epoch
Visualization orbit readout
Latitude
Unknown
Longitude
Unknown
Altitude
Unknown
Speed
Unknown
Apparent Right ascension
Unknown
Apparent Declination
Unknown
Sunlit
N/A
Visualization observer readout
Local Sidereal Time
15:11:05
Azimuth
Unknown
Elevation
Unknown
Doppler factor
Unknown
Orbital elements
Apogee altitude
855.276 km
Perigee altitude
699.382 km
Semi-major axis
7,155.466 km
Eccentricity
0.01089
Inclination
98.3162°
RAAN
123.6343°
Arg. of periapsis
152.6048°
True anomaly
266.59904°
Mean anomaly
267.8457°
Eccentric anomaly
267.22229°
Mean motion
3.5858 °/min
Orbital period
100.4 mins
BSTAR
0.00038563
Loading maneuver chart data...
Computing Atmospheric mass density...
Loading historical data...
Loading historical data...
Loading historical data...
Loading historical data...
Loading historical data...
Loading historical data...
Loading historical data...

Documentation

Showing up to 5 results
|